Midland, MI

8:34 AM EST on November 19, 2017 (GMT -0500)
Barstow

Weather History for KIKW - September, 2013

Change the Weather History Date:

Friday, September 27, 2013

  Actual Average (KMBS) Record (KMBS)
Temperature  
Mean Temperature 58 °F -  
Max Temperature 77 °F 66 °F 86 °F (1999)
Min Temperature 39 °F 43 °F 39 °F (1997)
Degree Days  
Heating Degree Days 7    
Growing Degree Days 8 (Base 50)    
Moisture  
Dew Point 49 °F    
Average Humidity 78    
Maximum Humidity 100    
Minimum Humidity 39    
Precipitation  
Precipitation 0.00 in - - ()
Sea Level Pressure  
Sea Level Pressure 30.19 in    
Wind  
Wind Speed 1 mph (East)    
Max Wind Speed 9 mph    
Max Gust Speed -    
Visibility 8 miles    
Events Fog    
Averages and records for this station are not official NWS values.
T = Trace of Precipitation, MM = Missing Value Source: NWS Daily Summary

Daily Weather History Graph

Daily Weather History Graph

Search for Another Location

Airport or City:

Trip Planner

Search our weather history database for the weather conditions in past years. The results will help you decide how hot, cold, wet, or windy it might be!

Date:

Astronomy

Sep. 27, 2013 Rise Set
Actual Time 7:30 AM EDT 7:24 PM EDT
Civil Twilight 7:01 AM EDT 7:53 PM EDT
Nautical Twilight 6:28 AM EDT 8:26 PM EDT
Astronomical Twilight 5:54 AM EDT 9:00 PM EDT
Moon 12:14 AM EDT (9/27) 3:12 PM EDT (9/27)
Length of Visible Light 12h 51m
Length of Day
11h 54m
Last Quarter, 45% of the Moon is Illuminated
Sep 27
Last Quarter
Oct 4
New
Oct 11
First Quarter
Oct 18
Full
Oct 26
Last Quarter

Hourly Weather History & Observations

Time (EDT) Temp. Dew Point Humidity Pressure Visibility Wind Dir Wind Speed Gust Speed Precip Events Conditions
12:14 AM 47.8 °F 47.1 °F 97% 30.15 in 4.0 mi Calm Calm - N/A   Clear
12:34 AM 49.3 °F 48.9 °F 99% 30.15 in 10.0 mi Calm Calm - N/A   Clear
12:53 AM 46.4 °F 45.7 °F 97% 30.15 in 3.0 mi Calm Calm - N/A   Scattered Clouds
1:13 AM 47.8 °F 47.5 °F 99% 30.15 in 10.0 mi Calm Calm - N/A   Scattered Clouds
1:34 AM 48.2 °F 47.7 °F 98% 30.16 in 1.0 mi Calm Calm - N/A   Overcast
1:53 AM 47.1 °F 46.8 °F 99% 30.16 in 0.2 mi Calm Calm - N/A Fog Fog
2:13 AM 46.4 °F 45.9 °F 98% 30.17 in 0.2 mi Calm Calm - N/A Fog Fog
2:34 AM 45.7 °F 45.3 °F 99% 30.17 in 0.2 mi Calm Calm - N/A Fog Fog
2:53 AM 43.9 °F 43.5 °F 99% 30.18 in 0.2 mi Calm Calm - N/A Fog Fog
3:14 AM 45.1 °F 44.8 °F 99% 30.18 in 0.2 mi Calm Calm - N/A Fog Fog
3:34 AM 44.4 °F 44.1 °F 99% 30.18 in 0.2 mi Calm Calm - N/A Fog Fog
3:53 AM 44.4 °F 44.1 °F 99% 30.18 in 0.2 mi Calm Calm - N/A Fog Fog
4:14 AM 44.1 °F 44.1 °F 100% 30.19 in 0.2 mi Calm Calm - N/A Fog Fog
4:34 AM 43.7 °F 43.7 °F 100% 30.19 in 0.5 mi Calm Calm - N/A Fog Fog
4:53 AM 42.8 °F 42.8 °F 100% 30.19 in 0.5 mi Calm Calm - N/A Fog Fog
5:14 AM 43.0 °F 43.0 °F 100% 30.20 in 0.8 mi Calm Calm - N/A   Overcast
5:34 AM 42.6 °F 42.4 °F 99% 30.20 in 0.5 mi Calm Calm - N/A Fog Fog
5:53 AM 42.6 °F 42.3 °F 99% 30.20 in 0.8 mi Calm Calm - N/A   Mist
6:14 AM 41.0 °F 40.8 °F 99% 30.20 in 0.8 mi Calm Calm - N/A   Mist
6:34 AM 41.4 °F 41.2 °F 99% 30.20 in 10.0 mi Calm Calm - N/A   Clear
6:53 AM 41.2 °F 41.0 °F 99% 30.21 in 10.0 mi Calm Calm - N/A   Clear
7:14 AM 40.6 °F 40.5 °F 99% 30.22 in 1.5 mi Calm Calm - N/A   Mist
7:34 AM 40.5 °F 40.5 °F 100% 30.22 in 7.0 mi Calm Calm - N/A   Clear
7:53 AM 39.7 °F 39.6 °F 99% 30.23 in 10.0 mi Calm Calm - N/A   Clear
8:14 AM 40.8 °F 40.6 °F 99% 30.23 in 10.0 mi Calm Calm - N/A   Clear
8:34 AM 42.8 °F 42.8 °F 100% 30.23 in 10.0 mi Calm Calm - N/A   Clear
8:53 AM 46.2 °F 46.0 °F 99% 30.24 in 10.0 mi Calm Calm - N/A   Clear
9:14 AM 49.8 °F 49.6 °F 99% 30.24 in 10.0 mi Calm Calm - N/A   Clear
9:34 AM 52.3 °F 51.8 °F 98% 30.24 in 10.0 mi Calm Calm - N/A   Clear
9:54 AM 55.2 °F 53.1 °F 92% 30.24 in 10.0 mi Calm Calm - N/A   Clear
10:14 AM 58.5 °F 54.0 °F 85% 30.24 in 10.0 mi Calm Calm - N/A   Clear
10:34 AM 61.3 °F 54.1 °F 77% 30.24 in 10.0 mi Calm Calm - N/A   Clear
10:54 AM 63.1 °F 54.0 °F 72% 30.25 in 10.0 mi Calm Calm - N/A   Clear
11:14 AM 64.9 °F 53.4 °F 66% 30.25 in 10.0 mi Calm Calm - N/A   Clear
11:33 AM 65.7 °F 52.9 °F 63% 30.25 in 7.0 mi Calm Calm - N/A   Clear
11:54 AM 68.2 °F 52.2 °F 56% 30.24 in 10.0 mi Calm Calm - N/A   Clear
12:14 PM 70.2 °F 53.2 °F 55% 30.24 in 10.0 mi Calm Calm - N/A   Clear
12:33 PM 71.1 °F 52.2 °F 51% 30.24 in 10.0 mi ESE 4.6 mph - N/A   Clear
12:54 PM 72.5 °F 51.6 °F 48% 30.24 in 7.0 mi SSW 3.5 mph - N/A   Clear
1:14 PM 72.7 °F 51.8 °F 48% 30.23 in 10.0 mi SSE 3.5 mph - N/A   Clear
1:33 PM 73.6 °F 52.7 °F 48% 30.22 in 10.0 mi SE 5.8 mph - N/A   Clear
1:54 PM 74.3 °F 51.6 °F 45% 30.22 in 10.0 mi SE 3.5 mph - N/A   Clear
2:14 PM 75.4 °F 51.6 °F 43% 30.21 in 10.0 mi Calm Calm - N/A   Clear
2:34 PM 75.6 °F 51.1 °F 42% 30.20 in 7.0 mi SSW 4.6 mph - N/A   Clear
2:54 PM 76.3 °F 51.1 °F 41% 30.20 in 10.0 mi Calm Calm - N/A   Clear
3:14 PM 76.1 °F 51.8 °F 43% 30.19 in 10.0 mi Calm Calm - N/A   Clear
3:34 PM 77.2 °F 51.3 °F 40% 30.19 in 7.0 mi ESE 5.8 mph - N/A   Clear
3:54 PM 77.7 °F 53.1 °F 42% 30.18 in 7.0 mi Calm Calm - N/A   Clear
4:14 PM 77.5 °F 50.7 °F 39% 30.17 in 10.0 mi Calm Calm - N/A   Clear
4:34 PM 77.4 °F 53.2 °F 43% 30.17 in 10.0 mi East 6.9 mph - N/A   Clear
4:54 PM 77.0 °F 54.0 °F 45% 30.17 in 10.0 mi East 8.1 mph - N/A   Clear
5:14 PM 76.5 °F 53.6 °F 45% 30.17 in 10.0 mi East 9.2 mph - N/A   Clear
5:34 PM 76.3 °F 54.0 °F 46% 30.17 in 10.0 mi East 6.9 mph - N/A   Clear
5:54 PM 75.4 °F 52.7 °F 45% 30.17 in 10.0 mi East 8.1 mph - N/A   Clear
6:14 PM 74.5 °F 52.9 °F 47% 30.17 in 10.0 mi East 6.9 mph - N/A   Clear
6:34 PM 72.9 °F 53.4 °F 50% 30.17 in 10.0 mi East 8.1 mph - N/A   Clear
6:54 PM 70.5 °F 53.8 °F 55% 30.17 in 10.0 mi East 6.9 mph - N/A   Clear
7:14 PM 67.5 °F 53.1 °F 60% 30.17 in 10.0 mi East 8.1 mph - N/A   Clear
7:34 PM 65.5 °F 52.9 °F 64% 30.16 in 10.0 mi East 6.9 mph - N/A   Clear
7:54 PM 63.1 °F 52.7 °F 69% 30.16 in 10.0 mi East 4.6 mph - N/A   Clear
8:14 PM 61.5 °F 52.7 °F 73% 30.16 in 10.0 mi ENE 4.6 mph - N/A   Clear
8:34 PM 61.2 °F 53.4 °F 76% 30.17 in 10.0 mi Calm Calm - N/A   Clear
8:54 PM 58.3 °F 52.3 °F 81% 30.17 in 10.0 mi Calm Calm - N/A   Clear
9:14 PM 55.6 °F 52.0 °F 88% 30.17 in 10.0 mi Calm Calm - N/A   Clear
9:34 PM 54.3 °F 52.5 °F 94% 30.17 in 10.0 mi Calm Calm - N/A   Clear
9:54 PM 54.5 °F 52.9 °F 94% 30.17 in 10.0 mi ENE 3.5 mph - N/A   Clear
10:14 PM 55.6 °F 54.3 °F 96% 30.18 in 10.0 mi ENE 3.5 mph - N/A   Clear
10:34 PM 54.7 °F 53.2 °F 95% 30.18 in 10.0 mi Calm Calm - N/A   Clear
10:54 PM 53.4 °F 52.5 °F 97% 30.18 in 10.0 mi Calm Calm - N/A   Clear
11:14 PM 53.4 °F 52.3 °F 96% 30.19 in 10.0 mi Calm Calm - N/A   Clear
11:34 PM 52.9 °F 52.2 °F 97% 30.19 in 10.0 mi Calm Calm - N/A   Clear
11:54 PM 53.4 °F 52.5 °F 97% 30.19 in 10.0 mi Calm Calm - N/A   Clear